When you browse on this site, cookies collect data to enhance your experience and personalize the content and advertising you see.
Visit our Privacy Policy to learn more. By continuing to use the site, you agree to this use of cookies and data.
  • In Czech Republic
  • List of Countries
  • For 7 days
  • Water Temperature
  • Satellite Maps
  • Weather Map
  • Weather Widgets
  • user-avatar
    Login

    Hourly Weather Wlora

    Today, 23 March, Saturday

    Time Temperature Precipitation Wind Pressure Humidity
    00:00 +14°C° 0 mm 3 mps 766 mmHg 66%
    01:00 +13°C° 0 mm 3 mps 766 mmHg 65%
    02:00 +13°C° 0 mm 3 mps 766 mmHg 65%
    03:00 +14°C° 0 mm 2 mps 765 mmHg 66%
    04:00 +14°C° 0 mm 2 mps 765 mmHg 66%
    05:00 +14°C° 0 mm 2 mps 765 mmHg 67%
    06:00 +14°C° 0 mm 2 mps 765 mmHg 68%
    07:00 +14°C° 0 mm 3 mps 765 mmHg 64%
    08:00 +17°C° 0 mm 2 mps 765 mmHg 58%
    09:00 +19°C° 0 mm 1 mps 765 mmHg 53%
    10:00 +21°C° 0 mm 1 mps 765 mmHg 47%
    11:00 +20°C° 0 mm 2 mps 765 mmHg 47%
    12:00 +21°C° 0 mm 3 mps 764 mmHg 47%
    13:00 +22°C° 0 mm 4 mps 764 mmHg 47%
    14:00 +21°C° 0 mm 5 mps 764 mmHg 50%
    15:00 +21°C° 0 mm 5 mps 764 mmHg 52%
    16:00 +21°C° 0 mm 6 mps 763 mmHg 55%
    17:00 +19°C° 0 mm 6 mps 763 mmHg 61%
    18:00 +17°C° 0 mm 5 mps 764 mmHg 68%
    19:00 +15°C° 0 mm 5 mps 764 mmHg 75%
    20:00 +15°C° 0 mm 5 mps 764 mmHg 74%
    21:00 +15°C° 0 mm 5 mps 764 mmHg 73%
    22:00 +14°C° 0 mm 5 mps 765 mmHg 72%
    23:00 +14°C° 0 mm 4 mps 765 mmHg 70%

    Tomorrow, 24 March, Sunday

    Time Temperature Precipitation Wind Pressure Humidity
    00:00 +14°C° 0 mm 4 mps 765 mmHg 67%
    01:00 +14°C° 0 mm 4 mps 765 mmHg 65%
    02:00 +14°C° 0 mm 3 mps 765 mmHg 63%
    03:00 +14°C° 0 mm 3 mps 765 mmHg 61%
    04:00 +13°C° 0 mm 3 mps 764 mmHg 59%
    05:00 +15°C° 0 mm 2 mps 765 mmHg 61%
    06:00 +15°C° 0 mm 2 mps 765 mmHg 62%
    07:00 +15°C° 0 mm 2 mps 765 mmHg 63%
    08:00 +17°C° 0 mm 2 mps 765 mmHg 59%
    09:00 +18°C° 0 mm 2 mps 765 mmHg 56%
    10:00 +21°C° 0 mm 1 mps 765 mmHg 52%
    11:00 +20°C° 0 mm 2 mps 765 mmHg 54%
    12:00 +20°C° 0 mm 2 mps 765 mmHg 56%
    13:00 +21°C° 0 mm 3 mps 765 mmHg 58%
    14:00 +20°C° 0 mm 3 mps 764 mmHg 61%
    15:00 +20°C° 0 mm 3 mps 764 mmHg 64%
    16:00 +19°C° 0 mm 3 mps 764 mmHg 67%
    17:00 +18°C° 0 mm 3 mps 764 mmHg 71%
    18:00 +17°C° 0 mm 3 mps 764 mmHg 76%
    19:00 +16°C° 0 mm 3 mps 764 mmHg 80%
    20:00 +14°C° 0 mm 3 mps 764 mmHg 77%
    21:00 +14°C° 0 mm 3 mps 764 mmHg 74%
    22:00 +14°C° 0 mm 3 mps 764 mmHg 71%
    23:00 +14°C° 0 mm 3 mps 764 mmHg 70%

    Day after tomorrow, 25 March, Monday

    Time Temperature Precipitation Wind Pressure Humidity
    00:00 +14°C° 0 mm 3 mps 764 mmHg 68%
    01:00 +14°C° 0 mm 2 mps 764 mmHg 66%
    02:00 +14°C° 0 mm 2 mps 763 mmHg 66%
    03:00 +14°C° 0 mm 2 mps 763 mmHg 66%
    04:00 +13°C° 0 mm 2 mps 763 mmHg 66%
    05:00 +14°C° 0 mm 2 mps 763 mmHg 65%
    06:00 +15°C° 0 mm 2 mps 762 mmHg 64%
    07:00 +15°C° 0 mm 1 mps 762 mmHg 63%
    08:00 +17°C° 0 mm 2 mps 762 mmHg 61%
    09:00 +18°C° 0 mm 2 mps 762 mmHg 58%
    10:00 +19°C° 0 mm 2 mps 762 mmHg 55%
    11:00 +19°C° 0 mm 2 mps 762 mmHg 56%
    12:00 +20°C° 0 mm 2 mps 761 mmHg 57%
    13:00 +20°C° 0 mm 2 mps 761 mmHg 58%
    14:00 +20°C° 0 mm 2 mps 760 mmHg 59%
    15:00 +19°C° 0 mm 2 mps 760 mmHg 60%
    16:00 +20°C° 0 mm 1 mps 759 mmHg 61%
    17:00 +18°C° 0 mm 1 mps 759 mmHg 66%
    18:00 +16°C° 0 mm 1 mps 759 mmHg 70%
    19:00 +15°C° 0 mm 1 mps 759 mmHg 74%
    20:00 +14°C° 0 mm 1 mps 759 mmHg 73%
    21:00 +14°C° 0 mm 1 mps 759 mmHg 72%
    22:00 +14°C° 0 mm 2 mps 759 mmHg 71%
    23:00 +14°C° 0 mm 1 mps 759 mmHg 72%

    26 March, Tuesday

    Time Temperature Precipitation Wind Pressure Humidity
    00:00 +14°C° 0 mm 1 mps 759 mmHg 73%
    01:00 +13°C° 0 mm 1 mps 759 mmHg 73%
    02:00 +13°C° 0 mm 1 mps 759 mmHg 74%
    03:00 +13°C° 0 mm 2 mps 758 mmHg 75%
    04:00 +13°C° 0 mm 2 mps 758 mmHg 76%
    05:00 +12°C° 0 mm 3 mps 758 mmHg 75%
    06:00 +13°C° 0 mm 3 mps 759 mmHg 74%
    07:00 +14°C° 0 mm 3 mps 759 mmHg 73%
    08:00 +16°C° 0 mm 3 mps 759 mmHg 70%
    09:00 +17°C° 0 mm 3 mps 759 mmHg 67%
    10:00 +18°C° 0 mm 2 mps 759 mmHg 64%
    11:00 +18°C° 0.1 mm 2 mps 759 mmHg 65%
    12:00 +18°C° 0.1 mm 3 mps 759 mmHg 67%
    13:00 +19°C° 0.1 mm 3 mps 759 mmHg 69%
    14:00 +18°C° 0.1 mm 4 mps 760 mmHg 74%
    15:00 +17°C° 0.1 mm 5 mps 760 mmHg 79%
    16:00 +16°C° 0.1 mm 6 mps 760 mmHg 84%
    17:00 +15°C° 0.1 mm 6 mps 760 mmHg 87%
    18:00 +14°C° 0.1 mm 5 mps 761 mmHg 89%
    19:00 +13°C° 0.1 mm 5 mps 761 mmHg 92%
    20:00 +13°C° 0 mm 4 mps 762 mmHg 91%
    21:00 +13°C° 0 mm 3 mps 762 mmHg 90%
    22:00 +13°C° 0 mm 3 mps 763 mmHg 88%
    23:00 +13°C° 0 mm 3 mps 763 mmHg 88%

    27 March, Wednesday

    Time Temperature Precipitation Wind Pressure Humidity
    00:00 +13°C° 0 mm 2 mps 763 mmHg 87%
    01:00 +13°C° 0 mm 2 mps 764 mmHg 86%
    02:00 +13°C° 0 mm 2 mps 763 mmHg 85%
    03:00 +12°C° 0 mm 3 mps 763 mmHg 84%
    04:00 +11°C° 0 mm 3 mps 763 mmHg 83%
    05:00 +12°C° 0 mm 3 mps 764 mmHg 81%
    06:00 +12°C° 0 mm 3 mps 764 mmHg 79%
    07:00 +12°C° 0 mm 3 mps 764 mmHg 78%
    08:00 +14°C° 0 mm 2 mps 764 mmHg 72%
    09:00 +16°C° 0 mm 2 mps 765 mmHg 66%
    10:00 +17°C° 0 mm 2 mps 765 mmHg 59%
    11:00 +17°C° 0.1 mm 2 mps 765 mmHg 63%
    12:00 +17°C° 0.1 mm 2 mps 765 mmHg 66%
    13:00 +17°C° 0.1 mm 3 mps 765 mmHg 70%
    14:00 +17°C° 0.1 mm 4 mps 764 mmHg 72%
    15:00 +15°C° 0.1 mm 5 mps 764 mmHg 74%
    16:00 +15°C° 0.1 mm 6 mps 764 mmHg 76%
    17:00 +14°C° 0.1 mm 6 mps 764 mmHg 80%
    18:00 +14°C° 0.1 mm 6 mps 764 mmHg 84%
    19:00 +13°C° 0.1 mm 6 mps 764 mmHg 88%
    20:00 +13°C° 0.1 mm 5 mps 764 mmHg 89%
    21:00 +13°C° 0.1 mm 5 mps 764 mmHg 91%
    22:00 +12°C° 0.1 mm 4 mps 765 mmHg 93%
    23:00 +12°C° 0.1 mm 4 mps 765 mmHg 92%

    28 March, Thursday

    Time Temperature Precipitation Wind Pressure Humidity
    00:00 +12°C° 0.1 mm 4 mps 765 mmHg 92%
    01:00 +12°C° 0.1 mm 3 mps 765 mmHg 92%
    02:00 +11°C° 0.2 mm 3 mps 765 mmHg 92%
    03:00 +11°C° 0.2 mm 3 mps 765 mmHg 91%
    04:00 +11°C° 0.2 mm 3 mps 765 mmHg 90%
    05:00 +11°C° 0.1 mm 3 mps 765 mmHg 90%
    06:00 +12°C° 0.1 mm 2 mps 765 mmHg 89%
    07:00 +12°C° 0.1 mm 2 mps 766 mmHg 88%
    08:00 +12°C° 0.1 mm 2 mps 766 mmHg 84%
    09:00 +13°C° 0.1 mm 2 mps 766 mmHg 79%
    10:00 +13°C° 0.1 mm 2 mps 766 mmHg 75%
    11:00 +14°C° 0 mm 2 mps 767 mmHg 70%
    12:00 +15°C° 0 mm 2 mps 767 mmHg 66%
    13:00 +16°C° 0 mm 1 mps 767 mmHg 61%
    14:00 +16°C° 0 mm 2 mps 767 mmHg 65%
    15:00 +16°C° 0 mm 3 mps 767 mmHg 68%
    16:00 +14°C° 0 mm 3 mps 767 mmHg 72%
    17:00 +14°C° 0 mm 3 mps 767 mmHg 74%
    18:00 +13°C° 0 mm 3 mps 767 mmHg 76%
    19:00 +14°C° 0 mm 2 mps 767 mmHg 78%
    20:00 +14°C° 0 mm 2 mps 767 mmHg 78%
    21:00 +13°C° 0 mm 2 mps 768 mmHg 78%
    22:00 +13°C° 0 mm 2 mps 768 mmHg 78%
    23:00 +13°C° 0.1 mm 2 mps 768 mmHg 79%
    Show more